Location: Cz?stochówka
(50.8142°N, 19.0915°E)
Time: 15:52:02
(UTC+00:00)

ARIANE 6 FM1 Upper Stage - Pass Details

Date: 13 January 2026
Orbit: 522 x 608 km, 62.0° (Epoch: 18 February)

Event Time Altitude Azimuth Distance (km) Brightness Sun altitude
Exits shadow 03:37:43 33° 116° (ESE) 904 4.1 -28.1°
Drops below altitude 10° 03:40:02 10° 125° (SE) 1,779 5.9 -27.8°
Sets 03:42:15 0° 128° (SE) 2,676 6.9 -27.4°
